Weather History for Watertown, NY

Change the Weather History Date:

Monday, November 18, 2013

  Actual Average Record
Temperature  
Mean Temperature 49 °F 38 °F  
Max Temperature 60 °F 46 °F 71 °F (1958)
Min Temperature 38 °F 29 °F 12 °F (1972)
Degree Days  
Heating Degree Days 16 27  
Month to date heating degree days 417 441  
Since 1 July heating degree days 1105 1237  
Cooling Degree Days 0 0  
Month to date cooling degree days 0 0  
Year to date cooling degree days 481 362  
Moisture  
Dew Point 38 °F    
Average Humidity 68    
Maximum Humidity 84    
Minimum Humidity 52    
Precipitation  
Precipitation 0.20 in 0.13 in 0.65 in (1968)
Month to date precipitation 2.16 2.24  
Year to date precipitation 31.35 31.41  
Sea Level Pressure  
Sea Level Pressure 29.55 in    
Wind  
Wind Speed 22 mph (WSW)    
Max Wind Speed 35 mph    
Max Gust Speed 46 mph    
Visibility 10 miles    
Events Rain    
T = Trace of Precipitation, MM = Missing Value Source: NWS Daily Summary

Daily Weather History Graph

Daily Weather History Graph

Search for Another Location

Airport:

Trip Planner

Search our weather history database for the weather conditions in past years. The results will help you decide how hot, cold, wet, or windy it might be!

Date:

Astronomy

Nov. 18, 2013 Rise Set
Actual Time 7:03 AM EST 4:35 PM EST
Civil Twilight 6:31 AM EST 5:06 PM EST
Nautical Twilight 5:56 AM EST 5:41 PM EST
Astronomical Twilight 5:22 AM EST 6:15 PM EST
Moon 5:35 PM EST (11/18) 7:50 AM EST (11/18)
Length of Visible Light 10h 34m
Length of Day
9h 31m
Full, 99% of the Moon is Illuminated
Nov 18
Full
Nov 25
Last Quarter
Dec 2
New
Dec 9
First Quarter
Dec 17
Full

Hourly Weather History & Observations

Time (EST) Temp. Windchill Dew Point Humidity Pressure Visibility Wind Dir Wind Speed Gust Speed Precip Events Conditions
12:56 AM 60.1 °F - 55.0 °F 83% 29.32 in 6.0 mi SSE 17.3 mph 34.5 mph 0.05 in Rain Light Rain
1:25 AM 55.4 °F - 48.2 °F 77% 29.41 in 10.0 mi SW 23.0 mph 33.4 mph 0.04 in Rain Light Rain
1:56 AM 53.1 °F - 48.9 °F 86% 29.39 in 6.0 mi South 11.5 mph - 0.05 in Rain Light Rain
2:56 AM 53.1 °F - 48.9 °F 86% 29.36 in 10.0 mi South 12.7 mph 23.0 mph 0.10 in Rain Light Rain
3:56 AM 53.1 °F - 44.1 °F 71% 29.41 in 10.0 mi SW 21.9 mph 32.2 mph N/A   Overcast
4:56 AM 53.1 °F - 42.1 °F 66% 29.43 in 10.0 mi SW 29.9 mph 41.4 mph N/A   Overcast
5:56 AM 52.0 °F - 42.1 °F 69% 29.45 in 10.0 mi SW 25.3 mph 42.6 mph N/A   Overcast
6:56 AM 52.0 °F - 43.0 °F 71% 29.47 in 10.0 mi SW 23.0 mph 40.3 mph N/A   Overcast
7:24 AM 51.8 °F - 42.8 °F 71% 29.49 in 10.0 mi SW 23.0 mph 39.1 mph 0.00 in Rain Light Rain
7:48 AM 51.8 °F - 42.8 °F 71% 29.49 in 10.0 mi SW 20.7 mph 33.4 mph 0.00 in   Overcast
7:56 AM 51.1 °F - 42.1 °F 71% 29.49 in 10.0 mi SW 20.7 mph 32.2 mph 0.00 in   Overcast
8:56 AM 50.0 °F - 39.9 °F 68% 29.52 in 10.0 mi WSW 19.6 mph 34.5 mph N/A   Overcast
9:56 AM 50.0 °F - 37.0 °F 61% 29.55 in 10.0 mi SW 20.7 mph 34.5 mph N/A   Overcast
10:56 AM 50.0 °F - 34.0 °F 54% 29.55 in 10.0 mi WSW 20.7 mph 34.5 mph N/A   Overcast
11:56 AM 50.0 °F - 37.0 °F 61% 29.54 in 10.0 mi WSW 20.7 mph 33.4 mph N/A   Overcast
12:56 PM 48.9 °F - 37.9 °F 66% 29.55 in 10.0 mi WSW 21.9 mph 32.2 mph 0.00 in Rain Light Rain
1:56 PM 48.9 °F - 37.0 °F 64% 29.55 in 10.0 mi West 21.9 mph 31.1 mph 0.00 in   Overcast
2:56 PM 48.0 °F - 35.1 °F 61% 29.57 in 10.0 mi WSW 23.0 mph 39.1 mph 0.00 in   Overcast
3:56 PM 48.0 °F - 34.0 °F 58% 29.59 in 10.0 mi WSW 26.5 mph 39.1 mph N/A   Overcast
4:56 PM 46.0 °F 37.6 °F 33.1 °F 61% 29.62 in 10.0 mi WSW 24.2 mph 39.1 mph N/A   Overcast
5:56 PM 46.0 °F 38.3 °F 32.0 °F 58% 29.64 in 10.0 mi WSW 20.7 mph 34.5 mph N/A   Overcast
6:56 PM 44.1 °F 34.8 °F 32.0 °F 63% 29.66 in 10.0 mi West 25.3 mph 41.4 mph 0.00 in   Overcast
7:56 PM 42.1 °F 32.1 °F 30.0 °F 62% 29.69 in 10.0 mi West 25.3 mph 38.0 mph N/A   Overcast
8:56 PM 41.0 °F 30.7 °F 28.0 °F 60% 29.72 in 10.0 mi West 25.3 mph 36.8 mph N/A   Mostly Cloudy
9:56 PM 39.9 °F 29.5 °F 26.1 °F 58% 29.74 in 10.0 mi West 24.2 mph 42.6 mph N/A   Overcast
10:56 PM 39.0 °F 28.8 °F 27.0 °F 62% 29.76 in 10.0 mi West 21.9 mph 39.1 mph 0.00 in   Overcast
11:56 PM 37.9 °F 27.1 °F 25.0 °F 60% 29.79 in 10.0 mi West 23.0 mph 32.2 mph 0.00 in Rain Light Rain